Location: Unspecified
(50.7693°N, 0.0000°E)
Time: 04:30:58
(UTC+00:00)

deb Explorer IX - Pass Details

Date: 26 June 2019
Orbit: 539 x 1111 km, 38.8° (Epoch: 16 August)

Event Time Altitude Azimuth Distance (km) Brightness Sun altitude
Rises 17:08:43 0° 265° (W) 3,920 ? 26.3°
Reaches altitude 10° 17:12:36 10° 246° (WSW) 2,974 ? 25.7°
Maximum altitude 17:16:54 17° 210° (SSW) 2,491 ? 25.0°
Drops below altitude 10° 17:21:07 10° 174° (S) 2,904 ? 24.3°
Sets 17:24:51 0° 155° (SSE) 3,785 ? 23.8°
